カタログに戻る

DELTA 1 DEB

運用中SSO
NORAD 26842·DEBRIS·🇺🇸 United States

打ち上げ Jun 12, 1975 から Vandenberg Space Force Base

Loading…

次のパス (今後24時間)

TLE

最新Source: Space-Track

元期: Sep 13, 2026, 22:17 UTC

1 26842U 75052KW  26256.92851817  .00000521  00000-0  55794-3 0  9994
2 26842  99.8383 253.0395 0039347  55.6688   8.1076 13.78602470429617

AllMySatでDELTA 1 DEBをリアルタイム追跡

Download on the App Store